User: anonymous   Login
Location: Montr�al
(45.5000°N, 73.5830°W)
Time: 11:54:52
(UTC-05:00)
Language:

Cosmos 2369 - Orbit

View from above orbital plane
View from above orbital plane
View from above satellite
View from above satellite

Ground track
Ground track

The orbit data is extracted from the following two-line orbital elements,

1 26069U 00006A   17057.53029343 -.00000142  00000-0 -50215-4 0  9994
2 26069  70.9900 230.8769 0009520  31.3872 328.7816 14.13333543880488
Epoch (UTC): 26 February 2017 12:43:37
Eccentricity: 0.0009520
inclination: 70.9900°
perigee height: 841 km
apogee height: 855 km
right ascension of ascending node: 230.8769°
argument of perigee: 31.3872°
revolutions per day: 14.13333543
mean anomaly at epoch: 328.7816°
orbit number at epoch: 88048

The dashed part of the orbit path shows where the satellite is in the earth's shadow,  

DLR